Station Historical Data
Daily Summary for June 8, 2012 Units:  English    Metric   Both
« Previous Day
Next Day »
Daily Weekly Monthly Yearly Custom
  High: Low: Average:
Temperature: 83.3 °F 61.5 °F 72.8 °F
Dew Point: 63.5 °F 54.2 °F 58.1 °F
Humidity: 77% 40% 62%
Wind Speed: 8.0mph 0.0mph 2.8mph
Wind Gust: 11.0mph - -
Wind- - ENE
Pressure: 30.03 in 29.90 in -
Precipitation: 0.00 in    
Historical Graphs
 
 
Tabular Data for June 8, 2012
Time Temperature Dew Point Pressure Wind Wind Speed Wind Gust Humidity Rainfall Rate (Hourly) Conditions
00:00 66.3 °F 57.8 °F 29.97 in NNE 3.0 mph 3.0 mph 74% 0.00 in
00:05 66.3 °F 57.8 °F 29.97 in NNE 2.0 mph 3.0 mph 74% 0.00 in
00:10 66.3 °F 57.8 °F 29.97 in NE 1.0 mph 4.0 mph 74% 0.00 in
00:15 66.2 °F 57.7 °F 29.97 in North 2.0 mph 3.0 mph 74% 0.00 in
00:20 66.1 °F 57.6 °F 29.97 in NE 2.0 mph 4.0 mph 74% 0.00 in
00:25 66.1 °F 57.6 °F 29.97 in NNE 1.0 mph 3.0 mph 74% 0.00 in
00:30 66.1 °F 57.6 °F 29.97 in NNE 2.0 mph 4.0 mph 74% 0.00 in
00:35 66.0 °F 57.5 °F 29.97 in NNW 2.0 mph 4.0 mph 74% 0.00 in
00:40 66.1 °F 57.6 °F 29.97 in North 2.0 mph 3.0 mph 74% 0.00 in
00:45 66.1 °F 57.6 °F 29.97 in NNE 3.0 mph 4.0 mph 74% 0.00 in
00:50 66.1 °F 57.2 °F 29.97 in NNE 2.0 mph 4.0 mph 73% 0.00 in
00:56 66.2 °F 57.3 °F 29.97 in NNE 3.0 mph 3.0 mph 73% 0.00 in
01:01 66.1 °F 57.2 °F 29.97 in NE 4.0 mph 4.0 mph 73% 0.00 in
01:06 66.1 °F 57.2 °F 29.97 in NE 2.0 mph 4.0 mph 73% 0.00 in
01:11 66.1 °F 56.8 °F 29.97 in NE 4.0 mph 4.0 mph 72% 0.00 in
01:16 66.0 °F 57.1 °F 29.97 in NNE 2.0 mph 3.0 mph 73% 0.00 in
01:21 65.8 °F 56.9 °F 29.97 in NE 4.0 mph 4.0 mph 73% 0.00 in
01:26 65.8 °F 56.9 °F 29.97 in NNE 1.0 mph 3.0 mph 73% 0.00 in
01:31 65.6 °F 56.7 °F 29.97 in NNE 3.0 mph 4.0 mph 73% 0.00 in
01:36 65.5 °F 56.6 °F 29.97 in NNE 3.0 mph 4.0 mph 73% 0.00 in
01:41 65.4 °F 56.5 °F 29.97 in NNE 1.0 mph 5.0 mph 73% 0.00 in
01:46 65.5 °F 56.6 °F 29.97 in NNE 3.0 mph 4.0 mph 73% 0.00 in
01:51 65.4 °F 56.5 °F 29.97 in NNE 3.0 mph 3.0 mph 73% 0.00 in
01:56 65.3 °F 56.4 °F 29.97 in North 4.0 mph 5.0 mph 73% 0.00 in
02:01 65.2 °F 56.3 °F 29.97 in NE 2.0 mph 4.0 mph 73% 0.00 in
02:06 65.0 °F 56.2 °F 29.97 in NNE 3.0 mph 4.0 mph 73% 0.00 in
02:11 65.0 °F 56.2 °F 29.97 in NNE 3.0 mph 6.0 mph 73% 0.00 in
02:16 65.0 °F 56.2 °F 29.97 in NNE 4.0 mph 5.0 mph 73% 0.00 in
02:21 65.0 °F 56.2 °F 29.96 in North 2.0 mph 4.0 mph 73% 0.00 in
02:26 64.9 °F 56.0 °F 29.96 in NNE 3.0 mph 5.0 mph 73% 0.00 in
02:31 64.8 °F 56.0 °F 29.96 in NNE 3.0 mph 4.0 mph 73% 0.00 in
02:36 64.7 °F 55.9 °F 29.96 in NNE 3.0 mph 4.0 mph 73% 0.00 in
02:41 64.7 °F 55.9 °F 29.96 in NE 5.0 mph 5.0 mph 73% 0.00 in
02:46 64.6 °F 55.8 °F 29.96 in NNE 4.0 mph 5.0 mph 73% 0.00 in
02:51 64.6 °F 55.8 °F 29.96 in NE 3.0 mph 5.0 mph 73% 0.00 in
02:56 64.6 °F 55.4 °F 29.96 in NNE 2.0 mph 6.0 mph 72% 0.00 in
03:01 64.6 °F 55.4 °F 29.96 in NNE 2.0 mph 6.0 mph 72% 0.00 in
03:06 64.6 °F 55.4 °F 29.96 in North 4.0 mph 5.0 mph 72% 0.00 in
03:11 64.5 °F 55.3 °F 29.95 in NE 3.0 mph 7.0 mph 72% 0.00 in
03:16 64.3 °F 55.1 °F 29.95 in NE 6.0 mph 6.0 mph 72% 0.00 in
03:21 64.2 °F 55.4 °F 29.95 in NNE 4.0 mph 6.0 mph 73% 0.00 in
03:27 64.2 °F 55.0 °F 29.95 in NE 4.0 mph 6.0 mph 72% 0.00 in
03:32 64.1 °F 54.9 °F 29.95 in NNW 3.0 mph 5.0 mph 72% 0.00 in
03:37 64.0 °F 55.2 °F 29.95 in NNE 3.0 mph 4.0 mph 73% 0.00 in
03:42 63.9 °F 55.1 °F 29.96 in NNE 3.0 mph 6.0 mph 73% 0.00 in
03:47 63.9 °F 55.1 °F 29.95 in NNE 2.0 mph 5.0 mph 73% 0.00 in
03:52 63.8 °F 55.0 °F 29.95 in NNE 2.0 mph 6.0 mph 73% 0.00 in
03:57 63.7 °F 54.9 °F 29.96 in NNE 2.0 mph 4.0 mph 73% 0.00 in
04:02 63.5 °F 54.7 °F 29.96 in NE 2.0 mph 4.0 mph 73% 0.00 in
04:07 63.5 °F 54.7 °F 29.96 in NE 2.0 mph 6.0 mph 73% 0.00 in
04:12 63.5 °F 54.7 °F 29.96 in NNE 4.0 mph 4.0 mph 73% 0.00 in
04:17 63.4 °F 54.6 °F 29.96 in NNE 2.0 mph 5.0 mph 73% 0.00 in
04:22 63.3 °F 54.5 °F 29.96 in NE 5.0 mph 5.0 mph 73% 0.00 in
04:27 63.3 °F 54.5 °F 29.96 in NE 3.0 mph 5.0 mph 73% 0.00 in
04:32 63.2 °F 54.8 °F 29.96 in NE 2.0 mph 3.0 mph 74% 0.00 in
04:37 63.2 °F 54.4 °F 29.97 in NE 2.0 mph 4.0 mph 73% 0.00 in
04:42 63.2 °F 54.4 °F 29.97 in NE 3.0 mph 6.0 mph 73% 0.00 in
04:47 63.1 °F 54.7 °F 29.97 in NNE 3.0 mph 4.0 mph 74% 0.00 in
04:52 62.9 °F 54.5 °F 29.97 in ENE 1.0 mph 4.0 mph 74% 0.00 in
04:57 62.8 °F 54.4 °F 29.97 in NNE 3.0 mph 5.0 mph 74% 0.00 in
05:02 62.7 °F 54.3 °F 29.96 in NE 2.0 mph 4.0 mph 74% 0.00 in
05:07 62.8 °F 54.4 °F 29.97 in North 2.0 mph 4.0 mph 74% 0.00 in
05:12 62.7 °F 54.3 °F 29.97 in NE 2.0 mph 4.0 mph 74% 0.00 in
05:17 62.7 °F 54.3 °F 29.97 in North 3.0 mph 4.0 mph 74% 0.00 in
05:22 62.7 °F 54.3 °F 29.97 in NNE 3.0 mph 4.0 mph 74% 0.00 in
05:27 62.7 °F 54.7 °F 29.97 in NNE 4.0 mph 4.0 mph 75% 0.00 in
05:32 62.6 °F 54.6 °F 29.97 in NNE 2.0 mph 4.0 mph 75% 0.00 in
05:37 62.5 °F 54.5 °F 29.97 in NNE 4.0 mph 5.0 mph 75% 0.00 in
05:42 62.5 °F 54.5 °F 29.97 in NNE 3.0 mph 5.0 mph 75% 0.00 in
05:47 62.5 °F 54.5 °F 29.97 in NNE 2.0 mph 5.0 mph 75% 0.00 in
05:52 62.6 °F 54.6 °F 29.97 in NE 2.0 mph 3.0 mph 75% 0.00 in
05:57 62.7 °F 54.3 °F 29.97 in NE 2.0 mph 4.0 mph 74% 0.00 in
06:02 62.8 °F 54.4 °F 29.98 in NE 3.0 mph 3.0 mph 74% 0.00 in
06:07 62.8 °F 54.4 °F 29.98 in NNE 3.0 mph 4.0 mph 74% 0.00 in
06:12 62.6 °F 54.6 °F 29.98 in NNE 3.0 mph 3.0 mph 75% 0.00 in
06:17 62.2 °F 54.2 °F 29.98 in North 3.0 mph 3.0 mph 75% 0.00 in
06:22 61.8 °F 54.2 °F 29.98 in NNW 1.0 mph 4.0 mph 76% 0.00 in
06:27 61.6 °F 54.3 °F 29.98 in NNE 3.0 mph 4.0 mph 77% 0.00 in
06:33 61.5 °F 54.2 °F 29.98 in NE 2.0 mph 3.0 mph 77% 0.00 in
06:38 61.6 °F 54.3 °F 29.99 in NE 2.0 mph 3.0 mph 77% 0.00 in
06:43 61.7 °F 54.4 °F 29.99 in NNE 3.0 mph 3.0 mph 77% 0.00 in
06:48 61.8 °F 54.5 °F 29.99 in NNE 4.0 mph 4.0 mph 77% 0.00 in
06:53 62.1 °F 54.5 °F 29.99 in NNE 1.0 mph 4.0 mph 76% 0.00 in
06:58 62.2 °F 54.5 °F 29.99 in North 6.0 mph 6.0 mph 76% 0.00 in
07:03 62.5 °F 54.5 °F 29.99 in North 3.0 mph 5.0 mph 75% 0.00 in
07:08 62.6 °F 54.6 °F 29.99 in NNE 1.0 mph 4.0 mph 75% 0.00 in
07:13 62.7 °F 54.7 °F 30.00 in NNE 2.0 mph 3.0 mph 75% 0.00 in
07:18 62.7 °F 54.7 °F 30.00 in NNE 1.0 mph 2.0 mph 75% 0.00 in
07:23 62.6 °F 54.9 °F 30.00 in NNE 1.0 mph 3.0 mph 76% 0.00 in
07:28 62.8 °F 55.1 °F 30.00 in NE 2.0 mph 3.0 mph 76% 0.00 in
07:33 63.1 °F 55.4 °F 30.00 in NNW 2.0 mph 3.0 mph 76% 0.00 in
07:38 63.2 °F 55.2 °F 30.00 in NNE 2.0 mph 4.0 mph 75% 0.00 in
07:43 63.6 °F 55.9 °F 30.00 in NE 3.0 mph 3.0 mph 76% 0.00 in
07:48 64.0 °F 55.9 °F 30.00 in North 3.0 mph 4.0 mph 75% 0.00 in
07:53 64.2 °F 55.8 °F 30.00 in NE 5.0 mph 5.0 mph 74% 0.00 in
07:58 64.2 °F 55.8 °F 30.00 in ENE 2.0 mph 6.0 mph 74% 0.00 in
08:03 64.5 °F 56.4 °F 30.00 in NE 3.0 mph 4.0 mph 75% 0.00 in
08:08 65.1 °F 56.2 °F 30.01 in NE 3.0 mph 4.0 mph 73% 0.00 in
08:13 65.7 °F 56.8 °F 30.00 in North 5.0 mph 5.0 mph 73% 0.00 in
08:18 66.0 °F 56.7 °F 30.00 in NE 4.0 mph 6.0 mph 72% 0.00 in
08:23 66.3 °F 57.0 °F 30.01 in NE 2.0 mph 7.0 mph 72% 0.00 in
08:28 66.9 °F 56.8 °F 30.01 in NE 4.0 mph 6.0 mph 70% 0.00 in
08:33 67.5 °F 57.0 °F 30.01 in NE 3.0 mph 7.0 mph 69% 0.00 in
08:38 67.9 °F 57.0 °F 30.01 in NE 3.0 mph 7.0 mph 68% 0.00 in
08:43 68.4 °F 57.8 °F 30.01 in NE 5.0 mph 7.0 mph 69% 0.00 in
08:48 68.6 °F 58.0 °F 30.01 in NE 4.0 mph 8.0 mph 69% 0.00 in
08:53 69.0 °F 58.8 °F 30.02 in ESE 5.0 mph 5.0 mph 70% 0.00 in
08:58 69.6 °F 58.2 °F 30.02 in NE 4.0 mph 5.0 mph 67% 0.00 in
09:03 70.2 °F 58.3 °F 30.02 in East 1.0 mph 4.0 mph 66% 0.00 in
09:09 71.1 °F 59.6 °F 30.02 in ENE 3.0 mph 3.0 mph 67% 0.00 in
09:14 71.2 °F 58.8 °F 30.02 in ENE 2.0 mph 5.0 mph 65% 0.00 in
09:19 71.2 °F 58.8 °F 30.02 in NE 2.0 mph 3.0 mph 65% 0.00 in
09:24 71.7 °F 58.9 °F 30.02 in NE 3.0 mph 5.0 mph 64% 0.00 in
09:29 72.2 °F 60.2 °F 30.02 in East 3.0 mph 4.0 mph 66% 0.00 in
09:34 72.4 °F 58.7 °F 30.03 in ESE 4.0 mph 7.0 mph 62% 0.00 in
09:39 72.2 °F 58.5 °F 30.03 in ESE 5.0 mph 7.0 mph 62% 0.00 in
09:44 72.2 °F 58.9 °F 30.02 in NE 3.0 mph 8.0 mph 63% 0.00 in
09:49 72.7 °F 59.8 °F 30.02 in ENE 4.0 mph 7.0 mph 64% 0.00 in
09:54 73.0 °F 59.7 °F 30.02 in East 6.0 mph 6.0 mph 63% 0.00 in
09:59 73.3 °F 60.0 °F 30.02 in ENE 3.0 mph 7.0 mph 63% 0.00 in
10:04 73.5 °F 60.2 °F 30.02 in NE 5.0 mph 7.0 mph 63% 0.00 in
10:09 73.5 °F 60.2 °F 30.02 in East 7.0 mph 7.0 mph 63% 0.00 in
10:14 73.7 °F 59.0 °F 30.02 in NE 3.0 mph 9.0 mph 60% 0.00 in
10:19 74.1 °F 60.3 °F 30.02 in SE 5.0 mph 7.0 mph 62% 0.00 in
10:24 74.2 °F 59.4 °F 30.02 in East 3.0 mph 8.0 mph 60% 0.00 in
10:29 74.5 °F 60.6 °F 30.02 in East 4.0 mph 7.0 mph 62% 0.00 in
10:34 74.8 °F 59.0 °F 30.02 in East 5.0 mph 8.0 mph 58% 0.00 in
10:39 74.9 °F 59.6 °F 30.02 in ESE 7.0 mph 7.0 mph 59% 0.00 in
10:44 75.1 °F 59.8 °F 30.02 in ESE 6.0 mph 7.0 mph 59% 0.00 in
10:49 75.2 °F 59.9 °F 30.02 in East 3.0 mph 6.0 mph 59% 0.00 in
10:54 75.4 °F 60.1 °F 30.02 in ESE 8.0 mph 9.0 mph 59% 0.00 in
10:59 75.7 °F 60.4 °F 30.02 in ESE 5.0 mph 7.0 mph 59% 0.00 in
11:04 75.9 °F 60.6 °F 30.02 in ESE 2.0 mph 5.0 mph 59% 0.00 in
11:09 76.1 °F 61.7 °F 30.02 in East 7.0 mph 7.0 mph 61% 0.00 in
11:14 76.4 °F 60.5 °F 30.02 in SE 7.0 mph 9.0 mph 58% 0.00 in
11:19 76.4 °F 61.0 °F 30.02 in ENE 5.0 mph 9.0 mph 59% 0.00 in
11:24 76.7 °F 61.3 °F 30.02 in SE 2.0 mph 8.0 mph 59% 0.00 in
11:29 77.2 °F 62.2 °F 30.02 in ESE 3.0 mph 5.0 mph 60% 0.00 in
11:34 77.4 °F 62.0 °F 30.02 in SE 7.0 mph 7.0 mph 59% 0.00 in
11:39 77.4 °F 61.5 °F 30.02 in ENE 4.0 mph 9.0 mph 58% 0.00 in
11:44 77.7 °F 61.8 °F 30.02 in East 6.0 mph 8.0 mph 58% 0.00 in
11:49 78.0 °F 61.0 °F 30.02 in ENE 2.0 mph 6.0 mph 56% 0.00 in
11:54 77.9 °F 61.0 °F 30.02 in East 1.0 mph 5.0 mph 56% 0.00 in
11:59 78.3 °F 61.8 °F 30.02 in ESE 1.0 mph 10.0 mph 57% 0.00 in
12:04 78.5 °F 63.5 °F 30.01 in Calm   7.0 mph 60% 0.00 in
12:09 78.9 °F 62.4 °F 30.01 in ESE 5.0 mph 8.0 mph 57% 0.00 in
12:14 79.3 °F 61.8 °F 30.01 in ENE 7.0 mph 8.0 mph 55% 0.00 in
12:19 78.9 °F 61.4 °F 30.01 in SE 3.0 mph 7.0 mph 55% 0.00 in
12:25 78.8 °F 60.8 °F 30.01 in SE 3.0 mph 7.0 mph 54% 0.00 in
12:30 79.0 °F 61.5 °F 30.01 in NE 3.0 mph 8.0 mph 55% 0.00 in
12:35 79.3 °F 62.8 °F 30.01 in East 4.0 mph 7.0 mph 57% 0.00 in
12:40 79.6 °F 62.5 °F 30.01 in East 4.0 mph 7.0 mph 56% 0.00 in
12:45 79.7 °F 61.6 °F 30.01 in ESE 5.0 mph 9.0 mph 54% 0.00 in
12:50 79.9 °F 61.8 °F 30.00 in NE 2.0 mph 7.0 mph 54% 0.00 in
12:55 80.2 °F 61.0 °F 30.00 in East 7.0 mph 7.0 mph 52% 0.00 in
13:00 80.1 °F 56.2 °F 30.00 in East 6.0 mph 8.0 mph 44% 0.00 in
13:05 80.1 °F 58.1 °F 30.00 in Calm   5.0 mph 47% 0.00 in
13:10 79.9 °F 60.7 °F 30.00 in ESE 3.0 mph 5.0 mph 52% 0.00 in
13:15 79.4 °F 59.2 °F 30.00 in ESE 2.0 mph 5.0 mph 50% 0.00 in
13:20 79.1 °F 60.0 °F 30.00 in SE 6.0 mph 6.0 mph 52% 0.00 in
13:25 79.5 °F 59.2 °F 30.00 in ESE 6.0 mph 8.0 mph 50% 0.00 in
13:30 79.3 °F 59.1 °F 29.99 in NNE 4.0 mph 4.0 mph 50% 0.00 in
13:35 80.0 °F 60.8 °F 29.99 in ENE 6.0 mph 7.0 mph 52% 0.00 in
13:40 80.5 °F 58.4 °F 29.99 in ENE 2.0 mph 9.0 mph 47% 0.00 in
13:45 80.8 °F 59.3 °F 29.99 in NNE 3.0 mph 8.0 mph 48% 0.00 in
13:50 80.6 °F 57.9 °F 29.98 in NNE 4.0 mph 8.0 mph 46% 0.00 in
13:55 80.4 °F 58.9 °F 29.98 in ESE 5.0 mph 10.0 mph 48% 0.00 in
14:00 80.7 °F 58.0 °F 29.98 in East 4.0 mph 6.0 mph 46% 0.00 in
14:05 81.1 °F 56.5 °F 29.98 in East 2.0 mph 5.0 mph 43% 0.00 in
14:10 81.4 °F 56.1 °F 29.98 in ESE 6.0 mph 8.0 mph 42% 0.00 in
14:15 81.5 °F 58.1 °F 29.97 in SE 5.0 mph 9.0 mph 45% 0.00 in
14:20 81.5 °F 58.8 °F 29.97 in ESE 4.0 mph 7.0 mph 46% 0.00 in
14:25 81.9 °F 59.7 °F 29.97 in ESE 6.0 mph 7.0 mph 47% 0.00 in
14:30 81.7 °F 58.9 °F 29.97 in SE 1.0 mph 7.0 mph 46% 0.00 in
14:35 81.5 °F 59.3 °F 29.97 in NE 3.0 mph 10.0 mph 47% 0.00 in
14:40 80.5 °F 57.8 °F 29.97 in NE 4.0 mph 9.0 mph 46% 0.00 in
14:45 80.4 °F 58.3 °F 29.97 in NNE 4.0 mph 7.0 mph 47% 0.00 in
14:50 80.8 °F 60.4 °F 29.97 in NE 3.0 mph 4.0 mph 50% 0.00 in
14:55 81.3 °F 58.0 °F 29.96 in SE 4.0 mph 5.0 mph 45% 0.00 in
15:00 81.9 °F 58.5 °F 29.96 in South 1.0 mph 6.0 mph 45% 0.00 in
15:05 82.3 °F 58.9 °F 29.96 in ENE 4.0 mph 8.0 mph 45% 0.00 in
15:10 82.2 °F 56.8 °F 29.96 in SW 1.0 mph 6.0 mph 42% 0.00 in
15:15 82.3 °F 56.9 °F 29.95 in ENE 4.0 mph 7.0 mph 42% 0.00 in
15:20 82.3 °F 58.9 °F 29.95 in East 5.0 mph 8.0 mph 45% 0.00 in
15:25 82.5 °F 58.4 °F 29.95 in WNW 3.0 mph 4.0 mph 44% 0.00 in
15:30 83.0 °F 60.1 °F 29.95 in NE 7.0 mph 7.0 mph 46% 0.00 in
15:35 82.7 °F 58.0 °F 29.95 in NE 6.0 mph 11.0 mph 43% 0.00 in
15:40 82.2 °F 58.8 °F 29.95 in NE 3.0 mph 7.0 mph 45% 0.00 in
15:45 82.1 °F 58.7 °F 29.95 in NE 8.0 mph 8.0 mph 45% 0.00 in
15:51 82.2 °F 58.1 °F 29.95 in East 7.0 mph 8.0 mph 44% 0.00 in
15:56 82.3 °F 58.2 °F 29.95 in ENE 5.0 mph 8.0 mph 44% 0.00 in
16:01 82.2 °F 56.8 °F 29.95 in NNE 4.0 mph 6.0 mph 42% 0.00 in
16:06 82.2 °F 57.5 °F 29.94 in NE 4.0 mph 7.0 mph 43% 0.00 in
16:11 82.4 °F 57.7 °F 29.94 in ENE 6.0 mph 7.0 mph 43% 0.00 in
16:16 82.3 °F 57.6 °F 29.94 in NW 2.0 mph 11.0 mph 43% 0.00 in
16:21 82.4 °F 58.3 °F 29.94 in NE 7.0 mph 7.0 mph 44% 0.00 in
16:26 82.3 °F 56.9 °F 29.94 in NE 4.0 mph 9.0 mph 42% 0.00 in
16:31 82.3 °F 56.9 °F 29.94 in East 4.0 mph 7.0 mph 42% 0.00 in
16:36 82.3 °F 58.2 °F 29.94 in NE 5.0 mph 8.0 mph 44% 0.00 in
16:41 82.5 °F 57.8 °F 29.94 in NNE 1.0 mph 8.0 mph 43% 0.00 in
16:46 82.7 °F 58.0 °F 29.93 in NE 6.0 mph 9.0 mph 43% 0.00 in
16:51 82.7 °F 58.6 °F 29.93 in East 1.0 mph 6.0 mph 44% 0.00 in
16:56 82.7 °F 57.3 °F 29.93 in ESE 4.0 mph 7.0 mph 42% 0.00 in
17:01 82.9 °F 57.5 °F 29.93 in NE 3.0 mph 7.0 mph 42% 0.00 in
17:06 83.0 °F 57.6 °F 29.92 in East 4.0 mph 9.0 mph 42% 0.00 in
17:11 82.8 °F 56.7 °F 29.93 in ENE 6.0 mph 9.0 mph 41% 0.00 in
17:16 82.6 °F 59.8 °F 29.92 in East 3.0 mph 5.0 mph 46% 0.00 in
17:21 82.8 °F 58.0 °F 29.92 in NE 5.0 mph 5.0 mph 43% 0.00 in
17:26 82.8 °F 58.0 °F 29.92 in NNE 1.0 mph 5.0 mph 43% 0.00 in
17:31 82.9 °F 58.8 °F 29.92 in NNE 3.0 mph 8.0 mph 44% 0.00 in
17:36 82.8 °F 58.0 °F 29.92 in ENE 5.0 mph 8.0 mph 43% 0.00 in
17:41 82.8 °F 59.3 °F 29.92 in NNW 2.0 mph 7.0 mph 45% 0.00 in
17:46 82.8 °F 58.7 °F 29.92 in NNE 2.0 mph 8.0 mph 44% 0.00 in
17:51 83.0 °F 58.2 °F 29.91 in ENE 6.0 mph 6.0 mph 43% 0.00 in
17:56 82.9 °F 56.8 °F 29.91 in NE 2.0 mph 6.0 mph 41% 0.00 in
18:01 82.7 °F 57.3 °F 29.91 in ENE 3.0 mph 5.0 mph 42% 0.00 in
18:06 82.8 °F 57.4 °F 29.91 in East 5.0 mph 7.0 mph 42% 0.00 in
18:11 82.9 °F 56.8 °F 29.91 in NE 3.0 mph 8.0 mph 41% 0.00 in
18:16 82.7 °F 58.0 °F 29.91 in NE 1.0 mph 4.0 mph 43% 0.00 in
18:21 82.9 °F 58.1 °F 29.91 in East 4.0 mph 5.0 mph 43% 0.00 in
18:26 83.2 °F 60.3 °F 29.91 in ENE 3.0 mph 4.0 mph 46% 0.00 in
18:32 83.2 °F 59.0 °F 29.91 in ENE 6.0 mph 7.0 mph 44% 0.00 in
18:37 82.8 °F 58.7 °F 29.91 in NE 3.0 mph 8.0 mph 44% 0.00 in
18:42 82.8 °F 59.3 °F 29.90 in NE 4.0 mph 6.0 mph 45% 0.00 in
18:47 83.1 °F 59.0 °F 29.91 in ENE 2.0 mph 5.0 mph 44% 0.00 in
18:52 83.3 °F 57.8 °F 29.91 in ESE 1.0 mph 3.0 mph 42% 0.00 in
18:57 83.3 °F 56.5 °F 29.91 in East 4.0 mph 5.0 mph 40% 0.00 in
19:02 83.1 °F 57.0 °F 29.91 in ENE 3.0 mph 5.0 mph 41% 0.00 in
19:07 82.8 °F 58.0 °F 29.91 in East 1.0 mph 4.0 mph 43% 0.00 in
19:12 82.8 °F 58.0 °F 29.91 in ESE 2.0 mph 5.0 mph 43% 0.00 in
19:17 82.8 °F 58.0 °F 29.91 in East 1.0 mph 3.0 mph 43% 0.00 in
19:22 82.9 °F 59.4 °F 29.91 in ENE 1.0 mph 4.0 mph 45% 0.00 in
19:27 82.9 °F 58.8 °F 29.91 in ENE 1.0 mph 4.0 mph 44% 0.00 in
19:32 82.8 °F 58.7 °F 29.91 in NE 3.0 mph 3.0 mph 44% 0.00 in
19:37 82.6 °F 59.1 °F 29.91 in ENE 2.0 mph 3.0 mph 45% 0.00 in
19:42 82.3 °F 59.5 °F 29.92 in ENE 2.0 mph 3.0 mph 46% 0.00 in
19:47 82.1 °F 59.9 °F 29.92 in ESE 1.0 mph 3.0 mph 47% 0.00 in
19:52 82.0 °F 59.8 °F 29.92 in ENE 2.0 mph 3.0 mph 47% 0.00 in
19:57 81.8 °F 60.8 °F 29.92 in East 1.0 mph 1.0 mph 49% 0.00 in
20:02 81.6 °F 61.7 °F 29.92 in Calm   1.0 mph 51% 0.00 in
20:07 81.3 °F 62.0 °F 29.92 in Calm   1.0 mph 52% 0.00 in
20:12 80.9 °F 61.6 °F 29.92 in Calm     52% 0.00 in
20:17 80.6 °F 61.9 °F 29.92 in Calm   1.0 mph 53% 0.00 in
20:22 80.1 °F 62.0 °F 29.92 in Calm     54% 0.00 in
20:27 79.8 °F 61.2 °F 29.92 in Calm     53% 0.00 in
20:32 79.6 °F 62.0 °F 29.92 in Calm     55% 0.00 in
20:37 79.5 °F 62.5 °F 29.92 in Calm     56% 0.00 in
20:42 79.9 °F 62.8 °F 29.92 in Calm     56% 0.00 in
20:47 79.4 °F 61.3 °F 29.92 in Calm     54% 0.00 in
20:52 78.5 °F 62.5 °F 29.92 in Calm     58% 0.00 in
20:57 77.0 °F 62.1 °F 29.92 in East 1.0 mph 1.0 mph 60% 0.00 in
21:02 76.0 °F 60.7 °F 29.92 in Calm   1.0 mph 59% 0.00 in
21:07 75.3 °F 60.9 °F 29.92 in Calm     61% 0.00 in
21:12 74.5 °F 61.1 °F 29.92 in Calm     63% 0.00 in
21:17 73.7 °F 61.7 °F 29.92 in Calm     66% 0.00 in
21:23 72.6 °F 61.4 °F 29.92 in Calm     68% 0.00 in
21:28 71.9 °F 62.4 °F 29.91 in Calm   1.0 mph 72% 0.00 in
21:33 71.6 °F 62.1 °F 29.92 in East 1.0 mph 2.0 mph 72% 0.00 in
21:38 71.6 °F 61.7 °F 29.92 in Calm     71% 0.00 in
21:43 71.1 °F 60.8 °F 29.92 in Calm     70% 0.00 in
21:48 70.8 °F 60.5 °F 29.92 in Calm     70% 0.00 in
21:53 70.6 °F 60.3 °F 29.92 in Calm     70% 0.00 in
21:58 70.1 °F 61.0 °F 29.92 in Calm     73% 0.00 in
22:03 69.6 °F 61.0 °F 29.92 in Calm     74% 0.00 in
22:08 69.1 °F 60.5 °F 29.92 in Calm     74% 0.00 in
22:13 69.2 °F 60.6 °F 29.92 in Calm     74% 0.00 in
22:18 69.4 °F 60.4 °F 29.92 in Calm     73% 0.00 in
22:23 69.0 °F 60.4 °F 29.92 in Calm     74% 0.00 in
22:28 68.6 °F 60.7 °F 29.93 in Calm     76% 0.00 in
22:33 68.3 °F 60.5 °F 29.93 in Calm     76% 0.00 in
22:38 68.7 °F 60.5 °F 29.93 in Calm     75% 0.00 in
22:43 68.7 °F 60.1 °F 29.93 in Calm     74% 0.00 in
22:48 69.7 °F 59.1 °F 29.93 in Calm     69% 0.00 in
22:53 70.7 °F 59.2 °F 29.93 in East 1.0 mph 1.0 mph 67% 0.00 in
22:58 71.2 °F 59.7 °F 29.93 in Calm   1.0 mph 67% 0.00 in
23:03 71.1 °F 60.0 °F 29.93 in Calm     68% 0.00 in
23:08 70.2 °F 60.4 °F 29.93 in Calm     71% 0.00 in
23:13 69.3 °F 60.7 °F 29.93 in Calm     74% 0.00 in
23:18 68.4 °F 59.8 °F 29.93 in East 1.0 mph 1.0 mph 74% 0.00 in
23:23 68.9 °F 59.1 °F 29.93 in East 1.0 mph 1.0 mph 71% 0.00 in
23:28 69.5 °F 59.3 °F 29.93 in East 1.0 mph 2.0 mph 70% 0.00 in
23:33 69.2 °F 59.8 °F 29.93 in Calm   1.0 mph 72% 0.00 in
23:38 68.4 °F 59.4 °F 29.93 in East 1.0 mph 1.0 mph 73% 0.00 in
23:43 68.6 °F 59.6 °F 29.94 in Calm   1.0 mph 73% 0.00 in
23:48 68.5 °F 59.9 °F 29.93 in East 1.0 mph 1.0 mph 74% 0.00 in
23:53 68.2 °F 60.0 °F 29.94 in Calm   1.0 mph 75% 0.00 in
23:58 68.2 °F 59.2 °F 29.94 in Calm     73% 0.00 in
Compliments of Weather Underground